Longville, MN

3:23 PM CDT on July 21, 2017 (GMT -0500)
Longville Municipal

Weather History for KXVG - November, 2012

Change the Weather History Date:

Saturday, November 3, 2012

  Actual Average (KPWC) Record (KPWC)
Temperature  
Mean Temperature 34 °F -  
Max Temperature 39 °F 42 °F 64 °F (2001)
Min Temperature 28 °F 27 °F 8 °F (2006)
Degree Days  
Heating Degree Days 32    
Moisture  
Dew Point 25 °F    
Average Humidity 71    
Maximum Humidity 93    
Minimum Humidity 49    
Precipitation  
Precipitation 0.00 in - - ()
Sea Level Pressure  
Sea Level Pressure 30.19 in    
Wind  
Wind Speed 2 mph (ESE)    
Max Wind Speed 6 mph    
Max Gust Speed -    
Visibility 10 miles    
Events      
Averages and records for this station are not official NWS values.
T = Trace of Precipitation, MM = Missing Value Source: NWS Daily Summary

Daily Weather History Graph

Daily Weather History Graph

Search for Another Location

Airport or City:

Trip Planner

Search our weather history database for the weather conditions in past years. The results will help you decide how hot, cold, wet, or windy it might be!

Date:

Astronomy

Nov. 03, 2012 Rise Set
Actual Time 8:03 AM CDT 5:56 PM CDT
Civil Twilight 7:31 AM CDT 6:28 PM CDT
Nautical Twilight 6:54 AM CDT 7:04 PM CDT
Astronomical Twilight 6:19 AM CDT 7:40 PM CDT
Moon 9:32 PM CDT (11/3) 12:14 PM CDT (11/3)
Length of Visible Light 10h 57m
Length of Day
9h 53m
Waning Gibbous, 80% of the Moon is Illuminated
Nov 3
Waning Gibbous
Nov 6
Last Quarter
Nov 13
New
Nov 20
First Quarter
Nov 28
Full

Hourly Weather History & Observations

Time (CDT) Temp. Windchill Dew Point Humidity Pressure Visibility Wind Dir Wind Speed Gust Speed Precip Events Conditions
12:16 AM 32.0 °F - 24.8 °F 75% 30.17 in 10.0 mi Calm Calm - N/A   Scattered Clouds
12:36 AM 32.0 °F 27.5 °F 23.0 °F 69% 30.16 in 10.0 mi NE 4.6 mph - N/A   Mostly Cloudy
12:56 AM 32.0 °F 27.5 °F 24.8 °F 75% 30.17 in 10.0 mi ENE 4.6 mph - N/A   Scattered Clouds
1:16 AM 32.0 °F 27.5 °F 24.8 °F 75% 30.16 in 10.0 mi East 4.6 mph - N/A   Clear
1:36 AM 32.0 °F - 24.8 °F 75% 30.17 in 10.0 mi Calm Calm - N/A   Scattered Clouds
1:56 AM 32.0 °F - 24.8 °F 75% 30.17 in 10.0 mi Calm Calm - N/A   Mostly Cloudy
2:16 AM 32.0 °F - 24.8 °F 75% 30.17 in 10.0 mi Calm Calm - N/A   Mostly Cloudy
2:36 AM 30.2 °F - 24.8 °F 80% 30.17 in 10.0 mi Calm Calm - N/A   Scattered Clouds
2:56 AM 30.2 °F - 24.8 °F 80% 30.17 in 10.0 mi Calm Calm - N/A   Mostly Cloudy
3:16 AM 30.2 °F - 26.6 °F 86% 30.17 in 10.0 mi Calm Calm - N/A   Overcast
3:36 AM 30.2 °F - 24.8 °F 80% 30.17 in 10.0 mi Calm Calm - N/A   Overcast
3:56 AM 30.2 °F - 24.8 °F 80% 30.17 in 10.0 mi Calm Calm - N/A   Overcast
4:16 AM 30.2 °F - 24.8 °F 80% 30.16 in 10.0 mi Calm Calm - N/A   Overcast
4:36 AM 30.2 °F 26.7 °F 24.8 °F 80% 30.16 in 10.0 mi East 3.5 mph - N/A   Overcast
4:56 AM 30.2 °F - 24.8 °F 80% 30.16 in 10.0 mi Calm Calm - N/A   Overcast
5:16 AM 30.2 °F - 24.8 °F 80% 30.17 in 10.0 mi Calm Calm - N/A   Overcast
5:36 AM 30.2 °F - 24.8 °F 80% 30.17 in 10.0 mi Calm Calm - N/A   Overcast
5:56 AM 30.2 °F - 24.8 °F 80% 30.17 in 10.0 mi Calm Calm - N/A   Overcast
6:16 AM 30.2 °F - 26.6 °F 86% 30.18 in 10.0 mi Calm Calm - N/A   Overcast
6:36 AM 30.2 °F - 26.6 °F 86% 30.18 in 10.0 mi Calm Calm - N/A   Overcast
6:56 AM 30.2 °F - 26.6 °F 86% 30.18 in 10.0 mi Calm Calm - N/A   Scattered Clouds
7:16 AM 30.2 °F - 26.6 °F 86% - 10.0 mi Calm Calm - N/A   Clear
7:36 AM 30.2 °F - 26.6 °F 86% 30.18 in 10.0 mi Calm Calm - N/A   Clear
7:56 AM 28.4 °F - 24.8 °F 86% 30.18 in 10.0 mi Calm Calm - N/A   Scattered Clouds
8:16 AM 28.4 °F - 24.8 °F 86% 30.18 in 10.0 mi Calm Calm - N/A   Scattered Clouds
8:36 AM 28.4 °F - 26.6 °F 93% 30.19 in 10.0 mi Calm Calm - N/A   Clear
8:56 AM 30.2 °F - 26.6 °F 86% 30.20 in 10.0 mi Calm Calm - N/A   Clear
9:16 AM 30.2 °F - 26.6 °F 86% 30.20 in 10.0 mi Calm Calm - N/A   Clear
9:36 AM 30.2 °F 25.4 °F 26.6 °F 86% 30.20 in 10.0 mi East 4.6 mph - N/A   Clear
9:56 AM 32.0 °F - 24.8 °F 75% 30.20 in 10.0 mi Calm Calm - N/A   Clear
10:16 AM 32.0 °F - 24.8 °F 75% 30.20 in 10.0 mi Calm Calm - N/A   Clear
10:36 AM 32.0 °F 27.5 °F 24.8 °F 75% 30.20 in 10.0 mi East 4.6 mph - N/A   Scattered Clouds
10:56 AM 33.8 °F - 24.8 °F 70% 30.21 in 10.0 mi Calm Calm - N/A   Clear
11:16 AM 33.8 °F 30.8 °F 24.8 °F 70% 30.21 in 10.0 mi SE 3.5 mph - N/A   Scattered Clouds
11:36 AM 35.6 °F 31.7 °F 24.8 °F 65% 30.20 in 10.0 mi SE 4.6 mph - N/A   Mostly Cloudy
11:56 AM 35.6 °F 30.7 °F 24.8 °F 65% 30.20 in 10.0 mi SE 5.8 mph - N/A   Mostly Cloudy
12:16 PM 35.6 °F 32.8 °F 24.8 °F 65% 30.20 in 10.0 mi East 3.5 mph - N/A   Mostly Cloudy
12:36 PM 37.4 °F 34.9 °F 24.8 °F 60% 30.20 in 10.0 mi East 3.5 mph - N/A   Mostly Cloudy
12:56 PM 37.4 °F 32.8 °F 23.0 °F 56% 30.20 in 10.0 mi SE 5.8 mph - N/A   Mostly Cloudy
1:16 PM 37.4 °F - 24.8 °F 60% 30.19 in 10.0 mi Calm Calm - N/A   Mostly Cloudy
1:36 PM 37.4 °F 34.9 °F 23.0 °F 56% 30.19 in 10.0 mi ESE 3.5 mph - N/A   Mostly Cloudy
1:56 PM 39.2 °F 35.0 °F 23.0 °F 52% 30.19 in 10.0 mi SSE 5.8 mph - N/A   Mostly Cloudy
2:16 PM 39.2 °F 37.0 °F 21.2 °F 49% 30.19 in 10.0 mi East 3.5 mph - N/A   Mostly Cloudy
2:36 PM 39.2 °F - 23.0 °F 52% 30.19 in 10.0 mi Calm Calm - N/A   Mostly Cloudy
2:56 PM 39.2 °F 37.0 °F 24.8 °F 56% 30.19 in 10.0 mi ESE 3.5 mph - N/A   Mostly Cloudy
3:16 PM 39.2 °F 37.0 °F 24.8 °F 56% 30.18 in 10.0 mi East 3.5 mph - N/A   Overcast
3:36 PM 39.2 °F 35.9 °F 24.8 °F 56% 30.18 in 10.0 mi SSE 4.6 mph - N/A   Overcast
3:56 PM 39.2 °F 37.0 °F 24.8 °F 56% 30.18 in 10.0 mi SSE 3.5 mph - N/A   Mostly Cloudy
4:16 PM 39.2 °F 37.0 °F 24.8 °F 56% 30.18 in 10.0 mi South 3.5 mph - N/A   Mostly Cloudy
4:36 PM 39.2 °F 35.9 °F 24.8 °F 56% 30.18 in 10.0 mi South 4.6 mph - N/A   Overcast
4:56 PM 39.2 °F - 24.8 °F 56% 30.18 in 10.0 mi Calm Calm - N/A   Overcast
5:16 PM 39.2 °F - 24.8 °F 56% 30.18 in 10.0 mi Calm Calm - N/A   Overcast
5:36 PM 39.2 °F - 24.8 °F 56% 30.18 in 10.0 mi Calm Calm - N/A   Overcast
5:56 PM 37.4 °F - 24.8 °F 60% 30.18 in 10.0 mi Calm Calm - N/A   Overcast
6:16 PM 37.4 °F - 24.8 °F 60% 30.18 in 10.0 mi Calm Calm - N/A   Overcast
6:36 PM 37.4 °F 34.9 °F 26.6 °F 65% 30.19 in 10.0 mi NE 3.5 mph - N/A   Overcast
6:56 PM 37.4 °F - 26.6 °F 65% 30.19 in 10.0 mi Calm Calm - N/A   Overcast
7:16 PM 35.6 °F 32.8 °F 26.6 °F 70% 30.20 in 10.0 mi NE 3.5 mph - N/A   Overcast
7:36 PM 35.6 °F - 26.6 °F 70% 30.20 in 10.0 mi Calm Calm - N/A   Overcast
7:56 PM 35.6 °F 32.8 °F 26.6 °F 70% 30.20 in 10.0 mi ENE 3.5 mph - N/A   Overcast
8:16 PM 35.6 °F 32.8 °F 26.6 °F 70% 30.21 in 10.0 mi NE 3.5 mph - N/A   Overcast
8:36 PM 35.6 °F - 26.6 °F 70% 30.21 in 10.0 mi Calm Calm - N/A   Overcast
8:56 PM 35.6 °F - 26.6 °F 70% 30.21 in 10.0 mi Calm Calm - N/A   Overcast
9:16 PM 35.6 °F 32.8 °F 26.6 °F 70% 30.21 in 10.0 mi ENE 3.5 mph - N/A   Overcast
9:36 PM 35.6 °F - 26.6 °F 70% 30.21 in 10.0 mi Calm Calm - N/A   Overcast
9:56 PM 35.6 °F 32.8 °F 26.6 °F 70% 30.21 in 10.0 mi ENE 3.5 mph - N/A   Overcast
10:16 PM 33.8 °F - 26.6 °F 75% 30.22 in 10.0 mi Calm Calm - N/A   Overcast
10:36 PM 33.8 °F - 26.6 °F 75% 30.21 in 10.0 mi Calm Calm - N/A   Overcast
10:56 PM 33.8 °F - 26.6 °F 75% 30.22 in 10.0 mi Calm Calm - N/A   Overcast
11:16 PM 33.8 °F 30.8 °F 26.6 °F 75% 30.22 in 10.0 mi ESE 3.5 mph - N/A   Overcast
11:36 PM 33.8 °F 29.6 °F 24.8 °F 70% 30.22 in 10.0 mi ESE 4.6 mph - N/A   Overcast
11:56 PM 33.8 °F 30.8 °F 24.8 °F 70% 30.21 in 10.0 mi ESE 3.5 mph - N/A   Overcast